This is the latest recevied weather packets stored in our database for station/object IR2UAZ. If no packets are shown the sender has not sent any weather packets the latest 10 day(s).
| Time | Temp. | Humidity | Pressure | Rain* | Wind** | Luminosity | Snow |
|---|---|---|---|---|---|---|---|
| 1778004512 | 8.89° C | 64% | 1006.3 hPa | - | - | - | - |
| 1778004504 | 8.89° C | 63% | 1006.5 hPa | - | - | - | - |
| 1778004495 | 9.44° C | 63% | 1006.5 hPa | - | - | - | - |
| 1778004487 | 8.89° C | 62% | 1006.4 hPa | - | - | - | - |
| 1778004343 | 9.44° C | 61% | 1006.2 hPa | - | - | - | - |
| 1778004334 | 9.44° C | 61% | 1006.3 hPa | - | - | - | - |
| 1778004028 | 8.89° C | 67% | 1006.1 hPa | - | - | - | - |
| 1778003898 | 9.44° C | 60% | 1006.1 hPa | - | - | - | - |
| 1778002828 | 8.89° C | 67% | 1006.2 hPa | - | - | - | - |
| 1778001629 | 8.89° C | 67% | 1006.2 hPa | - | - | - | - |
| 1778000426 | 8.89° C | 67% | 1006.2 hPa | - | - | - | - |
| 1777999225 | 8.89° C | 67% | 1006.2 hPa | - | - | - | - |
| 1777998025 | 8.89° C | 67% | 1006.2 hPa | - | - | - | - |
| 1777997682 | 9.44° C | 61% | 1006.2 hPa | - | - | - | - |
| 1777997673 | 9.44° C | 60% | 1006.2 hPa | - | - | - | - |
| 1777996823 | 8.89° C | 67% | 1006.3 hPa | - | - | - | - |
| 1777996459 | 9.44° C | 60% | 1006 hPa | - | - | - | - |
| 1777995622 | 8.89° C | 66% | 1006.4 hPa | - | - | - | - |
| 1777992020 | 8.89° C | 66% | 1006.4 hPa | - | - | - | - |
| 1777990819 | 8.89° C | 66% | 1006.3 hPa | - | - | - | - |
| 1777989618 | 8.89° C | 66% | 1006.4 hPa | - | - | - | - |
| 1777988417 | 8.89° C | 65% | 1006.4 hPa | - | - | - | - |
| 1777987216 | 8.89° C | 65% | 1006.5 hPa | - | - | - | - |
| 1777986016 | 8.89° C | 65% | 1006.5 hPa | - | - | - | - |
| 1777984815 | 8.89° C | 64% | 1006.3 hPa | - | - | - | - |
* Rain since midnight (hover to see other rain measurements)
** Current wind speed in m/s (hover to see current wind gust speed)